Location: Vancouver
(49.2500°N, 123.1330°W)
Time: 02:18:49
(UTC-07:00)

YAOGAN 6 - Visible Passes

Search period start: 22 July 2014 00:00
Search period end: 01 August 2014 00:00
Orbit: 482 x 529 km, 97.3° (Epoch: 21 July)

Date Brightness Start Highest point End Pass type
(mag) Time Alt. Az. Time Alt. Az. Time Alt. Az.
22 Jul 5.0 00:20:31 12° WSW 00:22:04 14° W 00:24:06 10° NW visible
22 Jul 3.7 22:27:41 16° SE 22:30:04 31° ENE 22:33:18 10° N visible
23 Jul 4.5 00:02:29 17° SW 00:04:00 22° W 00:06:52 10° NW visible
23 Jul 4.3 22:09:39 11° ESE 22:12:15 21° ENE 22:15:01 10° NNE visible
23 Jul 3.9 23:44:27 23° SW 23:45:58 33° W 23:49:18 10° NNW visible
24 Jul 4.8 21:52:30 10° E 21:54:30 14° ENE 21:56:29 10° NNE visible
24 Jul 3.1 23:26:24 29° SSW 23:28:00 54° W 23:31:33 10° NNW visible
25 Jul 2.5 23:08:22 30° SSE 23:10:03 89° WSW 23:13:40 10° NNW visible
26 Jul 2.8 22:50:19 26° SE 22:52:08 56° ENE 22:55:40 10° N visible
27 Jul 5.1 00:25:07 11° WSW 00:26:22 13° W 00:28:00 10° WNW visible
27 Jul 3.5 22:32:17 19° SE 22:34:16 35° ENE 22:37:34 10° N visible
28 Jul 4.6 00:07:04 17° WSW 00:08:16 19° W 00:10:56 10° NW visible
28 Jul 4.1 22:14:14 14° ESE 22:16:27 23° ENE 22:19:19 10° NNE visible
28 Jul 4.0 23:49:02 24° SW 23:50:13 30° W 23:53:25 10° NNW visible
29 Jul 4.6 21:56:28 10° E 21:58:40 16° ENE 22:00:51 10° NNE visible
29 Jul 3.2 23:30:59 32° SSW 23:32:13 47° W 23:35:42 10° NNW visible
30 Jul 5.0 21:40:09 10° ENE 21:40:55 11° ENE 21:41:41 10° NE visible
30 Jul 2.5 23:12:56 37° S 23:14:14 79° WSW 23:17:50 10° NNW visible
31 Jul 2.6 22:54:52 33° SE 22:56:18 63° ENE 22:59:52 10° N visible
